Location: Ch�tillon
(48.8024°N, 2.2935°E)
Time: 01:15:23
(UTC+00:00)

deb Kosmos-397 - Visible Passes

Search period start: 15 August 2022 00:00
Search period end: 25 August 2022 00:00
Orbit: 541 x 1578 km, 65.8° (Epoch: 14 August)

Date Brightness Start Highest point End Pass type
(mag) Time Alt. Az. Time Alt. Az. Time Alt. Az.
15 Aug ? 00:16:05 10° NW 00:22:01 24° WSW 00:22:11 24° WSW visible
15 Aug ? 19:35:59 10° NW 19:43:32 28° NNE 19:49:58 10° ENE visible
15 Aug ? 21:26:54 10° NW 21:35:21 55° NE 21:39:17 27° ESE visible
15 Aug ? 23:17:22 10° NW 23:24:56 45° WSW 23:25:43 43° SW visible
16 Aug ? 20:28:43 10° NW 20:36:48 38° NNE 20:42:51 12° E visible
16 Aug ? 22:19:05 10° NW 22:27:25 79° WSW 22:29:17 52° SSE visible
17 Aug ? 00:10:48 10° WNW 00:15:25 17° W 00:15:42 17° W visible
17 Aug ? 19:30:19 10° NW 19:37:58 30° NNE 19:44:24 10° ENE visible
17 Aug ? 21:20:58 10° NW 21:29:26 66° NE 21:32:52 32° ESE visible
17 Aug ? 23:11:38 10° NW 23:18:31 34° WSW 23:19:18 33° WSW visible
18 Aug ? 20:22:50 10° NW 20:31:03 44° NE 20:36:30 16° ESE visible
18 Aug ? 22:13:11 10° NW 22:21:12 61° WSW 22:22:56 47° S visible
19 Aug ? 00:06:16 10° WNW 00:08:44 12° W 00:09:21 12° W visible
19 Aug ? 19:24:33 10° NW 19:32:21 33° NNE 19:38:47 10° E visible
19 Aug ? 21:15:01 10° NW 21:23:26 81° NE 21:26:35 35° SE visible
19 Aug ? 23:06:02 10° NW 23:11:59 25° WSW 23:13:00 24° WSW visible
20 Aug ? 20:16:54 10° NW 20:25:14 53° NE 20:30:15 18° ESE visible
20 Aug ? 22:07:21 10° NW 22:14:52 46° WSW 22:16:42 38° SSW visible
21 Aug ? 19:18:43 10° NW 19:26:39 37° NNE 19:33:06 10° E visible
21 Aug ? 21:09:04 10° NW 21:17:19 81° WSW 21:20:25 35° SSE visible
21 Aug ? 23:00:42 10° WNW 23:05:22 18° W 23:06:51 17° WSW visible
22 Aug ? 20:10:57 10° NW 20:19:18 64° NE 20:24:10 19° ESE visible
22 Aug ? 22:01:35 10° NW 22:08:26 35° WSW 22:10:36 28° SW visible
23 Aug ? 19:12:49 10° NW 19:20:54 43° NE 19:27:19 10° ESE visible
23 Aug ? 21:03:09 10° NW 21:11:05 63° WSW 21:14:23 30° S visible
23 Aug ? 22:56:02 10° WNW 22:58:41 12° W 23:00:50 10° WSW visible
24 Aug ? 20:04:58 10° NW 20:13:17 79° NE 20:18:12 19° SE visible
24 Aug ? 21:55:56 10° NW 22:01:53 26° WSW 22:04:38 19° SW visible
